OPTICUBE 04 (41851 NORAD) Tracking and Keplerian Element Data

This shows tracking and keplerian element data for the satellite.

Feedback or suggestion? Click here.




ElementValue
Catalog41851
NameOPTICUBE 04
Epoch Orbit11023
Epoch Day322.89347703
Epoch Year2018
RAAN52.9702
Inclination97.9213
Eccentricity0.0009412
Argument of Perigee19.3628
Mean Anonmoly340.7948
Mean Motion14.96732388
Decay Rate-2.7E-06
L11 41851U 16067D 18322.89347703 -.00000270 00000-0 -18325-4 0 9990
L22 41851 97.9213 52.9702 0009412 19.3628 340.7948 14.96732388110235

Live tracking and technical data element details for OPTICUBE 04 (NORAD 41851). OPTICUBE 04 can be tracked NOW for your location showing map with azimuth and elevation plus other details from your city location.

Track the satellite on the map from your city or location and see movement details for azimuth, elevation, latitude, longitude, range, height, and movement on the map or in text.







IsCatalogInMostPopularTable: catalog: 41851, numindb: 123
Update: records affected: 1



GetName: 41851 OPTICUBE 04

Hit Count: updated at: Mon, 19 Nov 2018 10:58:41 GMT